Terug naar catalogus

NULINK-1

ActiefCommunicatieSSO
NORAD 69002·PAYLOAD·🇬🇷 Greece

Gelanceerd May 3, 2026 vanaf Vandenberg Space Force Base

Loading…

Volgende Passages (komende 24 uur)

TLE

VersSource: Space-Track

Epoch: Sep 13, 2026, 15:54 UTC

1 69002U 26100Y   26256.66274194  .00001074  00000-0  10906-3 0  9997
2 69002  97.7228 152.5951 0003244  68.6136 291.5429 14.92869826 19899

Volg NULINK-1 in realtime met AllMySat

Download on the App Store